Tracking 19476 objects as of 18-Jan-2019
HD Live streaming from Space Station
objects crossing your sky now

COSMOS 839

Track COSMOS 839 now!
10-day predictions
COSMOS 839 is classified as:


NORAD ID: 9011
Int'l Code: 1976-067A
Perigee: 982.0 km
Apogee: 2,106.6 km
Inclination: 65.9 °
Period: 116.8 minutes
Semi major axis: 7915 km
RCS: 0.8498 m2 (medium)
Launch date: July 8, 1976
Source: Commonwealth of Independent States (former USSR) (CIS)
Launch site: PLESETSK MISSILE AND SPACE COMPLEX (PKMTR)
aabbcc
Your satellite tracking list
Your tracking list is empty




NASA's NSSDC Master Catalog

Two Line Element Set (TLE):
1  9011U 76067A   19016.61472151 -.00000047 +00000-0 +30484-4 0  9996
2  9011 065.8546 098.8509 0710410 258.5989 093.4442 12.32832585926221
Source of the keplerian elements: AFSPC